Location: Unspecified
(0.0000°N, 0.0000°E)
Time: 11:56:55
(UTC+00:00)

Tiros 1 despin weight - All Passes

Search period start: 26 May 2024 00:00
Search period end: 05 June 2024 00:00
Orbit: 578 x 621 km, 48.2° (Epoch: 25 May)

Date Brightness Start Highest point End Pass type
(mag) Time Alt. Az. Time Alt. Az. Time Alt. Az.
26 May - 06:15:07 10° NE 06:15:57 10° NE 06:16:48 10° ENE daylight
26 May - 07:52:42 10° NW 07:56:55 52° SW 08:01:12 10° SSE daylight
26 May - 18:18:17 10° S 18:21:20 17° SE 18:24:20 10° E visible
26 May - 19:58:13 10° WSW 20:02:20 34° NW 20:06:23 10° NNE visible
27 May - 06:22:51 10° N 06:26:24 24° NE 06:29:58 10° ESE daylight
27 May - 08:03:59 10° W 08:07:21 22° SW 08:10:45 10° S daylight
27 May - 18:27:30 10° SSW 18:31:46 39° SE 18:35:59 10° ENE visible
27 May - 20:10:10 10° W 20:12:45 15° NW 20:15:19 10° NNW visible
28 May - 06:32:31 10° NNW 06:36:47 60° NE 06:41:06 10° SE daylight
28 May - 18:37:35 10° SW 18:42:09 85° NW 18:46:39 10° NE visible
29 May - 05:05:42 10° NE 05:06:11 10° NE 05:06:41 10° NE visible
29 May - 06:42:56 10° NW 06:47:09 53° SW 06:51:25 10° SSE daylight
29 May - 17:08:31 10° S 17:11:31 17° SE 17:14:30 10° E daylight
29 May - 18:48:23 10° WSW 18:52:31 34° NW 18:56:37 10° NNE visible
30 May - 05:13:07 10° N 05:16:36 24° NE 05:20:07 10° ESE visible
30 May - 06:54:10 10° WNW 06:57:33 22° SW 07:00:57 10° S daylight
30 May - 17:17:40 10° SSW 17:21:56 38° SE 17:26:08 10° ENE daylight
30 May - 19:00:14 10° W 19:02:54 15° NW 19:05:35 10° NNW visible
31 May - 05:22:44 10° NNW 05:26:58 59° NE 05:31:15 10° SE visible
31 May - 17:27:43 10° SW 17:32:17 87° NW 17:36:48 10° NE daylight
01 Jun - 05:33:06 10° NW 05:37:18 54° SW 05:41:34 10° SSE visible
01 Jun - 15:58:40 10° S 16:01:38 17° SE 16:04:34 10° E daylight
01 Jun - 17:38:27 10° WSW 17:42:37 35° NW 17:46:45 10° NNE daylight
02 Jun - 04:03:17 10° N 04:06:44 23° NE 04:10:12 10° ESE visible
02 Jun - 05:44:17 10° WNW 05:47:41 22° SW 05:51:05 10° S daylight
02 Jun - 16:07:46 10° SSW 16:12:00 38° SE 16:16:13 10° ENE daylight
02 Jun - 17:50:13 10° W 17:52:59 16° NW 17:55:44 10° NNW daylight
03 Jun - 04:12:51 10° NNW 04:17:04 57° NE 04:21:19 10° SE visible
03 Jun - 16:17:45 10° SW 16:22:20 89° WNW 16:26:52 10° NE daylight
04 Jun - 04:23:10 10° NW 04:27:23 55° SW 04:31:38 10° SSE visible
04 Jun - 14:48:45 10° S 14:51:39 16° SE 14:54:32 10° E daylight
04 Jun - 16:28:27 10° WSW 16:32:39 36° NW 16:36:49 10° NNE daylight
